^^
Saratoga-Weather Station Historical Data
Daily Summary for November 2, 2020 Units:  Metric    English   Both
Daily Weekly Monthly Yearly Custom
  High: Low: Average:
Temperature: 21.5 °C 12.6 °C 18.7 °C
Dew Point: 15.9 °C 11.1 °C 15 °C
Humidity: 92% 64% 80%
Wind Speed: 25.9km/h 0km/h 6.1km/h
Wind Gust: 35.4km/h - -
Wind- - WSW
Pressure: 1016.9 hPa 1011.9 hPa -
Precipitation: 2.8 mm    
Historical Graphs
 
 
Tabular Data for November 2, 2020
Time Temperature Dew Point Pressure Wind Wind Speed Wind Gust Humidity Rainfall Rate (Hourly) solar
00:00 17.6 °C 15.4 °C 1012.9 hPa NNW 4.7 km/h 11.3 km/h 87% 0.0 mm 0 W/m2
00:05 17.6 °C 15.4 °C 1012.9 hPa WNW 1.4 km/h 14.5 km/h 87% 0.0 mm 0 W/m2
00:10 17.6 °C 15.4 °C 1012.9 hPa North 4.7 km/h 8 km/h 87% 0.0 mm 0 W/m2
00:15 17.6 °C 15.2 °C 1012.9 hPa NW 4.7 km/h 11.3 km/h 86% 0.0 mm 0 W/m2
00:20 17.6 °C 15.2 °C 1012.9 hPa NE 4.7 km/h 6.4 km/h 86% 0.0 mm 0 W/m2
00:25 17.7 °C 15.3 °C 1012.9 hPa WNW 6.4 km/h 6.4 km/h 86% 0.0 mm 0 W/m2
00:30 17.7 °C 15.3 °C 1012.9 hPa WNW 1.4 km/h 11.3 km/h 86% 0.0 mm 0 W/m2
00:35 17.7 °C 15.5 °C 1012.9 hPa North 3.2 km/h 11.3 km/h 87% 0.0 mm 0 W/m2
00:40 17.7 °C 15.5 °C 1012.9 hPa West 4.7 km/h 8 km/h 87% 0.0 mm 0 W/m2
00:45 17.6 °C 15.4 °C 1012.9 hPa NW 3.2 km/h 11.3 km/h 87% 0.0 mm 0 W/m2
00:50 17.6 °C 15.6 °C 1012.9 hPa West 14.3 km/h 16.1 km/h 88% 0.0 mm 0 W/m2
00:55 17.6 °C 15.6 °C 1012.9 hPa SSE 1.4 km/h 6.4 km/h 88% 0.0 mm 0 W/m2
01:00 17.5 °C 15.5 °C 1012.9 hPa NW 3.2 km/h 9.7 km/h 88% 0.0 mm 0 W/m2
01:05 17.5 °C 15.5 °C 1012.9 hPa NW 4.7 km/h 11.3 km/h 88% 0.0 mm 0 W/m2
01:10 17.5 °C 15.5 °C 1012.9 hPa North 3.2 km/h 14.5 km/h 88% 0.0 mm 0 W/m2
01:15 17.4 °C 15.4 °C 1012.9 hPa East 1.4 km/h 4.8 km/h 88% 0.0 mm 0 W/m2
01:20 17.4 °C 15.4 °C 1012.9 hPa North 3.2 km/h 14.5 km/h 88% 0.0 mm 0 W/m2
01:25 17.4 °C 15.4 °C 1012.9 hPa North 4.7 km/h 11.3 km/h 88% 0.0 mm 0 W/m2
01:30 17.4 °C 15.6 °C 1012.5 hPa NW 6.4 km/h 6.4 km/h 89% 0.0 mm 0 W/m2
01:35 17.4 °C 15.6 °C 1012.5 hPa NNW 6.4 km/h 12.9 km/h 89% 0.0 mm 0 W/m2
01:40 17.4 °C 15.6 °C 1012.5 hPa NNE 3.2 km/h 14.5 km/h 89% 0.0 mm 0 W/m2
01:45 17.4 °C 15.6 °C 1012.5 hPa West 9.7 km/h 19.3 km/h 89% 0.0 mm 0 W/m2
01:50 17.4 °C 15.6 °C 1012.5 hPa ENE 4.7 km/h 9.7 km/h 89% 0.0 mm 0 W/m2
01:55 17.4 °C 15.6 °C 1012.5 hPa NW 4.7 km/h 19.3 km/h 89% 0.0 mm 0 W/m2
02:00 17.4 °C 15.6 °C 1012.5 hPa NNE 4.7 km/h 19.3 km/h 89% 0.0 mm 0 W/m2
02:05 17.4 °C 15.6 °C 1012.5 hPa WNW 4.7 km/h 6.4 km/h 89% 0.0 mm 0 W/m2
02:11 17.4 °C 15.6 °C 1012.5 hPa West 1.4 km/h 19.3 km/h 89% 0.0 mm 0 W/m2
02:16 17.4 °C 15.6 °C 1012.5 hPa SW 4.7 km/h 12.9 km/h 89% 0.0 mm 0 W/m2
02:21 17.5 °C 15.5 °C 1012.5 hPa SSW 3.2 km/h 20.9 km/h 88% 0.0 mm 0 W/m2
02:26 17.6 °C 15.6 °C 1012.5 hPa West 9.7 km/h 9.7 km/h 88% 0.0 mm 0 W/m2
02:31 17.6 °C 15.6 °C 1012.5 hPa SW 3.2 km/h 20.9 km/h 88% 0.0 mm 0 W/m2
02:36 17.7 °C 15.7 °C 1012.9 hPa WSW 6.4 km/h 6.4 km/h 88% 0.0 mm 0 W/m2
02:41 17.7 °C 15.7 °C 1012.9 hPa Calm   6.4 km/h 88% 0.0 mm 0 W/m2
02:46 17.7 °C 15.7 °C 1012.9 hPa Calm   6.4 km/h 88% 0.0 mm 0 W/m2
02:51 17.6 °C 15.6 °C 1012.9 hPa SSE 6.4 km/h 16.1 km/h 88% 0.0 mm 0 W/m2
02:56 17.6 °C 15.6 °C 1012.9 hPa NNW 3.2 km/h 4.8 km/h 88% 0.0 mm 0 W/m2
03:01 17.6 °C 15.6 °C 1012.5 hPa NNE 7.9 km/h 12.9 km/h 88% 0.0 mm 0 W/m2
03:06 17.6 °C 15.6 °C 1012.9 hPa NNW 7.9 km/h 8 km/h 88% 0.0 mm 0 W/m2
03:11 17.7 °C 15.5 °C 1012.5 hPa NNW 3.2 km/h 14.5 km/h 87% 0.0 mm 0 W/m2
03:16 17.8 °C 15.4 °C 1012.5 hPa NW 6.4 km/h 8 km/h 86% 0.0 mm 0 W/m2
03:21 17.8 °C 15.4 °C 1012.9 hPa NW 1.4 km/h 11.3 km/h 86% 0.0 mm 0 W/m2
03:26 17.8 °C 15.6 °C 1012.9 hPa NW 3.2 km/h 14.5 km/h 87% 0.0 mm 0 W/m2
03:31 17.7 °C 15.5 °C 1012.9 hPa North 3.2 km/h 8 km/h 87% 0.0 mm 0 W/m2
03:36 17.7 °C 15.5 °C 1012.9 hPa North 6.4 km/h 11.3 km/h 87% 0.0 mm 0 W/m2
03:41 17.7 °C 15.5 °C 1012.5 hPa WSW 3.2 km/h 4.8 km/h 87% 0.0 mm 0 W/m2
03:46 17.7 °C 15.5 °C 1012.5 hPa NW 4.7 km/h 8 km/h 87% 0.0 mm 0 W/m2
03:56 17.7 °C 15.5 °C 1012.5 hPa WNW 4.7 km/h 9.7 km/h 87% 0.0 mm 0 W/m2
04:01 17.8 °C 15.6 °C 1012.5 hPa SW 4.7 km/h 8 km/h 87% 0.0 mm 0 W/m2
04:06 17.8 °C 15.6 °C 1012.5 hPa SW 4.7 km/h 12.9 km/h 87% 0.0 mm 0 W/m2
04:11 17.8 °C 15.6 °C 1012.5 hPa ESE 4.7 km/h 9.7 km/h 87% 0.0 mm 0 W/m2
04:16 17.8 °C 15.6 °C 1012.5 hPa West 4.7 km/h 4.8 km/h 87% 0.0 mm 0 W/m2
04:21 17.8 °C 15.6 °C 1012.5 hPa WSW 3.2 km/h 11.3 km/h 87% 0.0 mm 0 W/m2
04:26 17.9 °C 15.7 °C 1012.5 hPa NNE 4.7 km/h 17.7 km/h 87% 0.0 mm 0 W/m2
04:31 17.9 °C 15.5 °C 1012.5 hPa ENE 4.7 km/h 8 km/h 86% 0.0 mm 0 W/m2
04:36 17.9 °C 15.5 °C 1012.5 hPa East 4.7 km/h 17.7 km/h 86% 0.0 mm 0 W/m2
04:41 17.9 °C 15.5 °C 1012.5 hPa WNW 6.4 km/h 9.7 km/h 86% 0.0 mm 0 W/m2
04:46 18 °C 15.6 °C 1012.5 hPa NNW 6.4 km/h 14.5 km/h 86% 0.0 mm 0 W/m2
04:51 18 °C 15.6 °C 1012.5 hPa WNW 4.7 km/h 11.3 km/h 86% 0.0 mm 0 W/m2
04:56 18 °C 15.6 °C 1012.5 hPa NE 3.2 km/h 14.5 km/h 86% 0.0 mm 0 W/m2
05:01 17.9 °C 15.5 °C 1012.5 hPa NW 4.7 km/h 9.7 km/h 86% 0.0 mm 0 W/m2
05:06 18 °C 15.6 °C 1012.5 hPa ENE 4.7 km/h 8 km/h 86% 0.0 mm 0 W/m2
05:11 18.1 °C 15.5 °C 1012.5 hPa Calm   4.8 km/h 85% 0.0 mm 0 W/m2
05:16 18.1 °C 15.5 °C 1012.5 hPa WNW 4.7 km/h 8 km/h 85% 0.0 mm 0 W/m2
05:21 18.1 °C 15.5 °C 1012.5 hPa NW 9.7 km/h 12.9 km/h 85% 0.0 mm 0 W/m2
05:26 18.1 °C 15.5 °C 1012.9 hPa West 4.7 km/h 6.4 km/h 85% 0.0 mm 0 W/m2
05:31 18.1 °C 15.5 °C 1012.9 hPa Calm   4.8 km/h 85% 0.0 mm 0 W/m2
05:36 18.1 °C 15.5 °C 1012.9 hPa NE 4.7 km/h 8 km/h 85% 0.0 mm 0 W/m2
05:41 18.2 °C 15.6 °C 1012.9 hPa WNW 3.2 km/h 9.7 km/h 85% 0.0 mm 0 W/m2
05:46 18.2 °C 15.6 °C 1012.9 hPa West 4.7 km/h 11.3 km/h 85% 0.0 mm 0 W/m2
05:51 18.2 °C 15.6 °C 1012.9 hPa NW 3.2 km/h 9.7 km/h 85% 0.0 mm 0 W/m2
05:56 18.2 °C 15.5 °C 1012.9 hPa SW 4.7 km/h 11.3 km/h 84% 0.0 mm 0 W/m2
06:01 18.2 °C 15.5 °C 1012.9 hPa SSE 16.3 km/h 16.1 km/h 84% 0.0 mm 0 W/m2
06:06 18.1 °C 15.4 °C 1012.5 hPa Calm   4.8 km/h 84% 0.0 mm 0 W/m2
06:11 18.1 °C 15.4 °C 1012.5 hPa East 9.7 km/h 16.1 km/h 84% 0.0 mm 0 W/m2
06:17 18.1 °C 15.4 °C 1012.5 hPa South 7.9 km/h 16.1 km/h 84% 0.0 mm 0 W/m2
06:22 18.1 °C 15.4 °C 1012.5 hPa NNW 6.4 km/h 8 km/h 84% 0.0 mm 0 W/m2
06:27 18.2 °C 15.5 °C 1012.5 hPa NW 3.2 km/h 16.1 km/h 84% 0.0 mm 0 W/m2
06:32 18.2 °C 15.5 °C 1012.9 hPa ESE 4.7 km/h 9.7 km/h 84% 0.0 mm 0 W/m2
06:37 18.2 °C 15.5 °C 1012.5 hPa WSW 4.7 km/h 4.8 km/h 84% 0.0 mm 0 W/m2
06:42 18.2 °C 15.5 °C 1012.9 hPa NW 4.7 km/h 6.4 km/h 84% 0.0 mm 0 W/m2
06:47 18.2 °C 15.3 °C 1012.9 hPa WNW 3.2 km/h 9.7 km/h 83% 0.0 mm 0 W/m2
06:52 18.2 °C 15.3 °C 1012.9 hPa North 7.9 km/h 11.3 km/h 83% 0.0 mm 0 W/m2
06:57 18.2 °C 15.3 °C 1012.9 hPa East 6.4 km/h 24.1 km/h 83% 0.0 mm 0 W/m2
07:02 18.3 °C 15.4 °C 1012.5 hPa NW 7.9 km/h 16.1 km/h 83% 0.0 mm 0 W/m2
07:07 18.3 °C 15.2 °C 1012.5 hPa West 6.4 km/h 16.1 km/h 82% 0.0 mm 0 W/m2
07:12 18.3 °C 15.2 °C 1012.9 hPa North 6.4 km/h 12.9 km/h 82% 0.0 mm 0 W/m2
07:17 18.4 °C 15.3 °C 1012.5 hPa WNW 6.4 km/h 19.3 km/h 82% 0.0 mm 0 W/m2
07:22 18.3 °C 15.2 °C 1012.9 hPa SW 16.3 km/h 16.1 km/h 82% 0.0 mm 0 W/m2
07:27 18.3 °C 15.2 °C 1012.5 hPa WNW 9.7 km/h 14.5 km/h 82% 0.0 mm 0 W/m2
07:32 18.3 °C 15.2 °C 1012.5 hPa WNW 3.2 km/h 9.7 km/h 82% 0.0 mm 0 W/m2
07:37 18.3 °C 15.2 °C 1012.5 hPa NNW 7.9 km/h 16.1 km/h 82% 0.0 mm 5 W/m2
07:42 18.3 °C 15.2 °C 1012.9 hPa NE 3.2 km/h 6.4 km/h 82% 0.0 mm 7 W/m2
07:47 18.2 °C 15.1 °C 1012.9 hPa NNW 3.2 km/h 9.7 km/h 82% 0.0 mm 9 W/m2
07:52 18.2 °C 15.1 °C 1012.9 hPa North 4.7 km/h 8 km/h 82% 0.0 mm 11 W/m2
07:57 18.2 °C 15.1 °C 1012.9 hPa WNW 4.7 km/h 11.3 km/h 82% 0.0 mm 14 W/m2
08:02 18.2 °C 15.1 °C 1012.9 hPa North 4.7 km/h 6.4 km/h 82% 0.0 mm 18 W/m2
08:07 18.2 °C 15.1 °C 1013.2 hPa NW 4.7 km/h 8 km/h 82% 0.0 mm 21 W/m2
08:12 18.3 °C 15.2 °C 1013.2 hPa SW 3.2 km/h 11.3 km/h 82% 0.0 mm 21 W/m2
08:17 18.3 °C 15 °C 1012.9 hPa SW 6.4 km/h 19.3 km/h 81% 0.0 mm 23 W/m2
08:22 18.3 °C 15 °C 1013.2 hPa Calm   25.7 km/h 81% 0.0 mm 25 W/m2
08:27 18.3 °C 15 °C 1013.2 hPa West 9.7 km/h 22.5 km/h 81% 0.0 mm 30 W/m2
08:32 18.3 °C 15 °C 1013.2 hPa NNW 4.7 km/h 25.7 km/h 81% 0.0 mm 42 W/m2
08:37 18.3 °C 15 °C 1013.2 hPa NW 6.4 km/h 8 km/h 81% 0.0 mm 40 W/m2
08:42 18.3 °C 15 °C 1013.5 hPa WSW 20.9 km/h 20.9 km/h 81% 0.0 mm 37 W/m2
08:47 18.3 °C 15 °C 1013.2 hPa NE 6.4 km/h 11.3 km/h 81% 0.0 mm 42 W/m2
08:52 18.3 °C 15 °C 1013.2 hPa NW 3.2 km/h 8 km/h 81% 0.0 mm 40 W/m2
08:57 18.4 °C 15.1 °C 1013.2 hPa WSW 3.2 km/h 12.9 km/h 81% 0.0 mm 46 W/m2
09:02 18.4 °C 15.1 °C 1013.2 hPa NNW 1.4 km/h 6.4 km/h 81% 0.0 mm 40 W/m2
09:07 18.4 °C 15.1 °C 1013.2 hPa NW 7.9 km/h 12.9 km/h 81% 0.0 mm 51 W/m2
09:12 18.4 °C 15.1 °C 1013.2 hPa WNW 1.4 km/h 12.9 km/h 81% 0.0 mm 63 W/m2
09:17 18.4 °C 15.1 °C 1013.2 hPa SE 1.4 km/h 16.1 km/h 81% 0.0 mm 62 W/m2
09:22 18.4 °C 15.1 °C 1013.2 hPa NE 3.2 km/h 6.4 km/h 81% 0.0 mm 54 W/m2
09:27 18.4 °C 15.1 °C 1013.2 hPa NNW 6.4 km/h 16.1 km/h 81% 0.0 mm 53 W/m2
09:32 18.4 °C 15.1 °C 1013.5 hPa ESE 1.4 km/h 9.7 km/h 81% 0.0 mm 60 W/m2
09:37 18.5 °C 15.2 °C 1013.5 hPa WNW 11.1 km/h 11.3 km/h 81% 0.0 mm 70 W/m2
09:42 18.5 °C 15.2 °C 1013.5 hPa NNE 13 km/h 14.5 km/h 81% 0.0 mm 53 W/m2
09:47 18.6 °C 15.3 °C 1013.5 hPa North 6.4 km/h 9.7 km/h 81% 0.0 mm 76 W/m2
09:52 18.6 °C 15.3 °C 1013.2 hPa North 1.4 km/h 8 km/h 81% 0.0 mm 109 W/m2
09:57 18.6 °C 15.3 °C 1013.2 hPa NW 13 km/h 19.3 km/h 81% 0.0 mm 125 W/m2
10:02 18.7 °C 15.2 °C 1013.2 hPa SSW 3.2 km/h 19.3 km/h 80% 0.0 mm 130 W/m2
10:07 18.7 °C 15.2 °C 1013.2 hPa WNW 11.1 km/h 17.7 km/h 80% 0.0 mm 128 W/m2
10:12 18.8 °C 15.3 °C 1013.2 hPa ENE 3.2 km/h 19.3 km/h 80% 0.0 mm 146 W/m2
10:17 18.8 °C 15.1 °C 1013.2 hPa NNW 9.7 km/h 14.5 km/h 79% 0.0 mm 162 W/m2
10:22 18.9 °C 15.2 °C 1013.5 hPa East 6.4 km/h 9.7 km/h 79% 0.0 mm 160 W/m2
10:27 18.9 °C 15.2 °C 1013.2 hPa NNW 7.9 km/h 14.5 km/h 79% 0.0 mm 163 W/m2
10:32 19.1 °C 15.4 °C 1013.2 hPa WNW 3.2 km/h 8 km/h 79% 0.0 mm 165 W/m2
10:37 19.1 °C 15.2 °C 1013.2 hPa NNW 6.4 km/h 12.9 km/h 78% 0.0 mm 171 W/m2
10:42 19.2 °C 15.1 °C 1012.9 hPa West 6.4 km/h 19.3 km/h 77% 0.0 mm 174 W/m2
10:47 19.3 °C 15.2 °C 1012.9 hPa ENE 4.7 km/h 12.9 km/h 77% 0.0 mm 179 W/m2
10:52 19.3 °C 15.2 °C 1012.9 hPa NW 6.4 km/h 19.3 km/h 77% 0.0 mm 178 W/m2
10:57 19.4 °C 15.1 °C 1012.9 hPa NW 9.7 km/h 11.3 km/h 76% 0.0 mm 178 W/m2
11:02 19.5 °C 14.9 °C 1012.9 hPa NW 4.7 km/h 19.3 km/h 75% 0.0 mm 174 W/m2
11:07 19.6 °C 15 °C 1012.9 hPa West 3.2 km/h 8 km/h 75% 0.0 mm 174 W/m2
11:12 19.6 °C 15 °C 1012.9 hPa NW 3.2 km/h 14.5 km/h 75% 0.0 mm 174 W/m2
11:17 19.7 °C 14.9 °C 1012.9 hPa West 6.4 km/h 25.7 km/h 74% 0.0 mm 176 W/m2
11:22 19.8 °C 15 °C 1012.9 hPa West 1.4 km/h 14.5 km/h 74% 0.0 mm 172 W/m2
11:27 19.8 °C 14.8 °C 1013.2 hPa West 6.4 km/h 25.7 km/h 73% 0.0 mm 179 W/m2
11:32 20 °C 15 °C 1012.9 hPa NNW 6.4 km/h 12.9 km/h 73% 0.0 mm 188 W/m2
11:37 20.1 °C 14.9 °C 1013.2 hPa WNW 7.9 km/h 12.9 km/h 72% 0.0 mm 179 W/m2
11:42 20.2 °C 15 °C 1013.2 hPa SW 3.2 km/h 6.4 km/h 72% 0.0 mm 179 W/m2
11:47 20.3 °C 14.9 °C 1013.2 hPa West 14.3 km/h 14.5 km/h 71% 0.0 mm 260 W/m2
11:52 20.4 °C 15 °C 1013.2 hPa NNE 9.7 km/h 14.5 km/h 71% 0.0 mm 362 W/m2
11:57 20.5 °C 14.8 °C 1012.9 hPa WNW 17.7 km/h 17.7 km/h 70% 0.0 mm 260 W/m2
12:02 20.5 °C 14.6 °C 1013.2 hPa SW 4.7 km/h 19.3 km/h 69% 0.0 mm 200 W/m2
12:07 20.6 °C 14.7 °C 1013.2 hPa NE 3.2 km/h 9.7 km/h 69% 0.0 mm 186 W/m2
12:12 20.6 °C 14.7 °C 1013.2 hPa North 4.7 km/h 27.4 km/h 69% 0.0 mm 183 W/m2
12:17 20.7 °C 14.8 °C 1012.9 hPa ENE 1.4 km/h 11.3 km/h 69% 0.0 mm 218 W/m2
12:22 20.8 °C 14.7 °C 1012.9 hPa NW 6.4 km/h 14.5 km/h 68% 0.0 mm 179 W/m2
12:27 20.8 °C 14.7 °C 1012.9 hPa WNW 4.7 km/h 11.3 km/h 68% 0.0 mm 171 W/m2
12:32 20.8 °C 14.4 °C 1012.9 hPa South 7.9 km/h 11.3 km/h 67% 0.0 mm 167 W/m2
12:37 20.9 °C 14.5 °C 1012.9 hPa WSW 4.7 km/h 24.1 km/h 67% 0.0 mm 162 W/m2
12:42 20.9 °C 14.5 °C 1012.9 hPa NNW 4.7 km/h 16.1 km/h 67% 0.0 mm 148 W/m2
12:47 20.9 °C 14.3 °C 1012.9 hPa SW 4.7 km/h 24.1 km/h 66% 0.0 mm 135 W/m2
12:52 20.9 °C 14.5 °C 1012.9 hPa West 6.4 km/h 9.7 km/h 67% 0.0 mm 134 W/m2
12:57 20.8 °C 14.4 °C 1012.5 hPa WSW 7.9 km/h 14.5 km/h 67% 0.0 mm 107 W/m2
13:03 20.8 °C 14.4 °C 1012.5 hPa NE 3.2 km/h 16.1 km/h 67% 0.0 mm 151 W/m2
13:08 20.8 °C 14.4 °C 1012.5 hPa NE 1.4 km/h 12.9 km/h 67% 0.0 mm 181 W/m2
13:13 20.7 °C 14.4 °C 1012.9 hPa South 9.7 km/h 19.3 km/h 67% 0.0 mm 179 W/m2
13:18 20.7 °C 14.4 °C 1012.5 hPa WNW 1.4 km/h 11.3 km/h 67% 0.0 mm 190 W/m2
13:23 20.7 °C 14.6 °C 1012.5 hPa NW 4.7 km/h 16.1 km/h 68% 0.0 mm 178 W/m2
13:28 20.8 °C 14.4 °C 1012.5 hPa NNE 6.4 km/h 12.9 km/h 67% 0.0 mm 197 W/m2
13:33 20.8 °C 14.2 °C 1012.2 hPa West 3.2 km/h 8 km/h 66% 0.0 mm 141 W/m2
13:38 20.8 °C 14.4 °C 1012.5 hPa West 4.7 km/h 12.9 km/h 67% 0.0 mm 146 W/m2
13:43 20.9 °C 14.3 °C 1012.5 hPa NNE 6.4 km/h 16.1 km/h 66% 0.0 mm 132 W/m2
13:48 21.1 °C 14.5 °C 1012.2 hPa SW 6.4 km/h 20.9 km/h 66% 0.0 mm 211 W/m2
13:53 21.1 °C 14.5 °C 1012.5 hPa West 9.7 km/h 14.5 km/h 66% 0.0 mm 137 W/m2
13:58 21.2 °C 14.6 °C 1012.5 hPa NW 9.7 km/h 22.5 km/h 66% 0.0 mm 114 W/m2
14:03 21.2 °C 14.6 °C 1012.5 hPa NW 4.7 km/h 9.7 km/h 66% 0.0 mm 70 W/m2
14:08 21.3 °C 14.5 °C 1012.5 hPa West 3.2 km/h 24.1 km/h 65% 0.0 mm 62 W/m2
14:13 21.3 °C 14.5 °C 1012.2 hPa NW 6.4 km/h 11.3 km/h 65% 0.0 mm 54 W/m2
14:18 21.3 °C 14.5 °C 1012.2 hPa NW 6.4 km/h 22.5 km/h 65% 0.0 mm 44 W/m2
14:23 21.3 °C 14.2 °C 1012.5 hPa SW 14.3 km/h 24.1 km/h 64% 0.0 mm 49 W/m2
14:28 21.3 °C 14.5 °C 1012.2 hPa West 4.7 km/h 19.3 km/h 65% 0.0 mm 104 W/m2
14:33 21.4 °C 14.3 °C 1012.2 hPa North 4.7 km/h 9.7 km/h 64% 0.0 mm 83 W/m2
14:38 21.4 °C 14.3 °C 1012.2 hPa NNW 13 km/h 12.9 km/h 64% 0.0 mm 72 W/m2
14:43 21.5 °C 14.4 °C 1012.2 hPa WNW 7.9 km/h 19.3 km/h 64% 0.0 mm 100 W/m2
14:48 21.4 °C 14.3 °C 1012.2 hPa NNE 3.2 km/h 16.1 km/h 64% 0.0 mm 104 W/m2
14:53 21.3 °C 14.2 °C 1012.2 hPa WNW 1.4 km/h 12.9 km/h 64% 0.0 mm 113 W/m2
14:58 21.2 °C 14.1 °C 1012.2 hPa WNW 11.1 km/h 19.3 km/h 64% 0.0 mm 95 W/m2
15:03 21.2 °C 14.1 °C 1012.2 hPa NW 1.4 km/h 11.3 km/h 64% 0.0 mm 104 W/m2
15:08 21.2 °C 14.4 °C 1012.2 hPa West 9.7 km/h 9.7 km/h 65% 0.0 mm 84 W/m2
15:13 21.2 °C 14.1 °C 1012.2 hPa NE 7.9 km/h 11.3 km/h 64% 0.0 mm 109 W/m2
15:18 21.3 °C 14.5 °C 1011.9 hPa SW 3.2 km/h 14.5 km/h 65% 0.0 mm 86 W/m2
15:23 21.2 °C 14.4 °C 1012.2 hPa NW 3.2 km/h 12.9 km/h 65% 0.0 mm 72 W/m2
15:28 21.3 °C 14.5 °C 1012.2 hPa SSE 6.4 km/h 16.1 km/h 65% 0.0 mm 86 W/m2
15:33 21.2 °C 14.4 °C 1012.2 hPa WNW 19.5 km/h 25.7 km/h 65% 0.0 mm 79 W/m2
15:38 21.2 °C 14.4 °C 1012.2 hPa NNW 7.9 km/h 12.9 km/h 65% 0.0 mm 76 W/m2
15:43 21.2 °C 14.6 °C 1011.9 hPa ENE 1.4 km/h 25.7 km/h 66% 0.0 mm 39 W/m2
15:48 21.1 °C 14.5 °C 1011.9 hPa NNE 1.4 km/h 3.2 km/h 66% 0.0 mm 54 W/m2
15:53 21.1 °C 14.5 °C 1011.9 hPa WNW 1.4 km/h 8 km/h 66% 0.0 mm 42 W/m2
15:58 21.1 °C 14.7 °C 1011.9 hPa North 1.4 km/h 4.8 km/h 67% 0.0 mm 35 W/m2
16:03 21 °C 14.6 °C 1011.9 hPa NNW 3.2 km/h 9.7 km/h 67% 0.0 mm 19 W/m2
16:08 21 °C 14.6 °C 1011.9 hPa NW 3.2 km/h 4.8 km/h 67% 0.0 mm 12 W/m2
16:13 20.9 °C 14.5 °C 1012.2 hPa North 6.4 km/h 6.4 km/h 67% 0.0 mm 9 W/m2
16:18 20.9 °C 14.5 °C 1011.9 hPa WNW 3.2 km/h 8 km/h 67% 0.0 mm 16 W/m2
16:23 20.9 °C 14.8 °C 1011.9 hPa WSW 6.4 km/h 6.4 km/h 68% 0.0 mm 11 W/m2
16:28 20.9 °C 14.8 °C 1011.9 hPa NNW 1.4 km/h 6.4 km/h 68% 0.0 mm 23 W/m2
16:33 20.9 °C 14.8 °C 1011.9 hPa NNW 1.4 km/h 12.9 km/h 68% 0.0 mm 32 W/m2
16:38 20.9 °C 14.8 °C 1011.9 hPa WNW 1.4 km/h 3.2 km/h 68% 0.0 mm 16 W/m2
16:43 20.8 °C 14.7 °C 1012.2 hPa WSW 3.2 km/h 17.7 km/h 68% 0.0 mm 7 W/m2
16:48 20.8 °C 14.7 °C 1012.2 hPa Calm   3.2 km/h 68% 0.0 mm 5 W/m2
16:53 20.8 °C 14.7 °C 1011.9 hPa NNW 3.2 km/h 17.7 km/h 68% 0.0 mm 5 W/m2
16:58 20.8 °C 14.7 °C 1012.2 hPa NNE 3.2 km/h 6.4 km/h 68% 0.0 mm 0 W/m2
17:03 20.7 °C 14.6 °C 1012.2 hPa NNW 4.7 km/h 11.3 km/h 68% 0.0 mm 0 W/m2
17:08 20.7 °C 14.6 °C 1012.2 hPa NNE 1.4 km/h 9.7 km/h 68% 0.0 mm 0 W/m2
17:13 20.7 °C 14.8 °C 1012.2 hPa NW 1.4 km/h 4.8 km/h 69% 0.0 mm 0 W/m2
17:18 20.7 °C 14.8 °C 1012.2 hPa North 6.4 km/h 6.4 km/h 69% 0.0 mm 0 W/m2
17:23 20.6 °C 14.7 °C 1012.2 hPa WNW 1.4 km/h 6.4 km/h 69% 0.0 mm 0 W/m2
17:28 20.6 °C 14.7 °C 1012.5 hPa NW 4.7 km/h 9.7 km/h 69% 0.0 mm 0 W/m2
17:33 20.6 °C 14.7 °C 1012.5 hPa WNW 4.7 km/h 4.8 km/h 69% 0.0 mm 0 W/m2
17:39 20.5 °C 14.6 °C 1012.5 hPa North 3.2 km/h 3.2 km/h 69% 0.0 mm 0 W/m2
17:44 20.4 °C 14.5 °C 1012.5 hPa Calm   6.4 km/h 69% 0.0 mm 0 W/m2
17:49 20.3 °C 14.9 °C 1012.5 hPa West 4.7 km/h 20.9 km/h 71% 0.0 mm 0 W/m2
17:54 20 °C 15 °C 1012.9 hPa North 9.7 km/h 20.9 km/h 73% 0.0 mm 0 W/m2
17:59 19.4 °C 15.5 °C 1012.9 hPa NW 4.7 km/h 11.3 km/h 78% 0.0 mm 0 W/m2
18:04 18.8 °C 15.5 °C 1012.9 hPa West 6.4 km/h 19.3 km/h 81% 0.0 mm 0 W/m2
18:09 18.4 °C 15.3 °C 1013.2 hPa NW 3.2 km/h 8 km/h 82% 0.0 mm 0 W/m2
18:14 18.2 °C 15.5 °C 1013.2 hPa NW 3.2 km/h 19.3 km/h 84% 0.2 mm 0 W/m2
18:19 18 °C 15.4 °C 1013.2 hPa NW 6.4 km/h 8 km/h 85% 0.2 mm 0 W/m2
18:24 17.8 °C 15.6 °C 1013.2 hPa NE 3.2 km/h 14.5 km/h 87% 0.2 mm 0 W/m2
18:29 17.7 °C 15.5 °C 1013.2 hPa NW 6.4 km/h 14.5 km/h 87% 0.2 mm 0 W/m2
18:34 17.7 °C 15.5 °C 1013.2 hPa NW 7.9 km/h 12.9 km/h 87% 0.5 mm 0 W/m2
18:39 17.7 °C 15.5 °C 1013.2 hPa NW 14.3 km/h 14.5 km/h 87% 0.5 mm 0 W/m2
18:44 17.7 °C 15.7 °C 1013.2 hPa West 14.3 km/h 16.1 km/h 88% 0.5 mm 0 W/m2
18:49 17.7 °C 15.7 °C 1013.2 hPa WNW 13 km/h 14.5 km/h 88% 0.5 mm 0 W/m2
18:54 17.7 °C 15.7 °C 1013.5 hPa North 4.7 km/h 17.7 km/h 88% 0.5 mm 0 W/m2
18:59 17.6 °C 15.8 °C 1013.5 hPa WNW 16.3 km/h 16.1 km/h 89% 0.5 mm 0 W/m2
19:04 17.4 °C 15.6 °C 1013.5 hPa WNW 6.4 km/h 14.5 km/h 89% 0.5 mm 0 W/m2
19:09 17.4 °C 15.7 °C 1013.5 hPa NNW 6.4 km/h 12.9 km/h 90% 0.5 mm 0 W/m2
19:14 17.3 °C 15.6 °C 1013.9 hPa WNW 1.4 km/h 8 km/h 90% 0.5 mm 0 W/m2
19:19 17.2 °C 15.7 °C 1013.9 hPa NW 7.9 km/h 19.3 km/h 91% 0.5 mm 0 W/m2
19:24 17.2 °C 15.9 °C 1013.9 hPa West 1.4 km/h 9.7 km/h 92% 0.8 mm 0 W/m2
19:29 17.1 °C 15.8 °C 1014.2 hPa West 16.3 km/h 17.7 km/h 92% 1.0 mm 0 W/m2
19:34 17.1 °C 15.8 °C 1014.2 hPa NW 11.1 km/h 11.3 km/h 92% 1.0 mm 0 W/m2
19:39 16.9 °C 15.4 °C 1014.2 hPa West 4.7 km/h 9.7 km/h 91% 1.0 mm 0 W/m2
19:44 16.9 °C 15.6 °C 1014.2 hPa WNW 4.7 km/h 22.5 km/h 92% 1.0 mm 0 W/m2
19:49 16.8 °C 15.5 °C 1014.2 hPa NW 1.4 km/h 11.3 km/h 92% 1.0 mm 0 W/m2
19:54 16.7 °C 15.4 °C 1014.6 hPa WNW 7.9 km/h 22.5 km/h 92% 1.0 mm 0 W/m2
19:59 16.6 °C 15.3 °C 1014.6 hPa WNW 6.4 km/h 19.3 km/h 92% 1.3 mm 0 W/m2
20:04 16.3 °C 15 °C 1014.9 hPa NW 14.3 km/h 22.5 km/h 92% 1.5 mm 0 W/m2
20:09 16.2 °C 14.9 °C 1015.2 hPa WSW 17.7 km/h 19.3 km/h 92% 1.5 mm 0 W/m2
20:14 15.9 °C 14.6 °C 1014.9 hPa NNW 7.9 km/h 14.5 km/h 92% 1.5 mm 0 W/m2
20:19 15.7 °C 14.4 °C 1015.2 hPa West 14.3 km/h 17.7 km/h 92% 1.0 mm 0 W/m2
20:24 15.2 °C 13.7 °C 1015.6 hPa WSW 25.9 km/h 35.4 km/h 91% 1.0 mm 0 W/m2
20:29 14.7 °C 13.1 °C 1015.9 hPa WNW 17.7 km/h 22.5 km/h 90% 0.8 mm 0 W/m2
20:34 14.1 °C 12.5 °C 1016.3 hPa NNW 16.3 km/h 35.4 km/h 90% 0.8 mm 0 W/m2
20:39 13.7 °C 12.1 °C 1016.3 hPa WSW 20.9 km/h 20.9 km/h 90% 1.0 mm 0 W/m2
20:44 13.4 °C 12 °C 1016.6 hPa West 17.7 km/h 19.3 km/h 91% 1.3 mm 0 W/m2
20:49 13 °C 11.4 °C 1016.6 hPa WSW 19.5 km/h 25.7 km/h 90% 1.5 mm 0 W/m2
20:54 12.7 °C 11.1 °C 1016.6 hPa WNW 13 km/h 24.1 km/h 90% 1.5 mm 0 W/m2
20:59 12.6 °C 11.2 °C 1016.9 hPa WSW 25.9 km/h 30.6 km/h 91% 1.3 mm 0 W/m2
Juneau County Weather
Compliments of Weather Underground - 2 mb